Weather History for KLOZ - March, 2014

Change the Weather History Date:

Thursday, March 13, 2014

  Actual Average Record
Temperature  
Mean Temperature 32 °F 46 °F  
Max Temperature 41 °F 58 °F 84 °F (1967)
Min Temperature 23 °F 35 °F -3 °F (1960)
Degree Days  
Heating Degree Days 33 19  
Month to date heating degree days 263  
Since 1 July heating degree days 3539  
Cooling Degree Days 0 0  
Month to date cooling degree days 0  
Year to date cooling degree days 0  
Moisture  
Dew Point 13 °F    
Average Humidity 49    
Maximum Humidity 79    
Minimum Humidity 21    
Precipitation  
Precipitation 0.00 in 0.13 in 1.18 in (1975)
Month to date precipitation 1.70  
Year to date precipitation 8.95  
Sea Level Pressure  
Sea Level Pressure 30.14 in    
Wind  
Wind Speed 7 mph (WNW)    
Max Wind Speed 12 mph    
Max Gust Speed 21 mph    
Visibility 10 miles    
Events      
T = Trace of Precipitation, MM = Missing Value Source: NWS Daily Summary

Daily Weather History Graph

Daily Weather History Graph

Search for Another Location

Airport or City:

Trip Planner

Search our weather history database for the weather conditions in past years. The results will help you decide how hot, cold, wet, or windy it might be!

Date:

Astronomy

Mar. 13, 2014 Rise Set
Actual Time 7:50 AM EDT 7:41 PM EDT
Civil Twilight 7:24 AM EDT 8:07 PM EDT
Nautical Twilight 6:54 AM EDT 8:37 PM EDT
Astronomical Twilight 6:23 AM EDT 9:08 PM EDT
Moon 5:09 PM EDT (3/13) 5:53 AM EDT (3/13)
Length of Visible Light 12h 43m
Length of Day
11h 51m
Waxing Gibbous, 91% of the Moon is Illuminated
Mar 13
Waxing Gibbous
Mar 16
Full
Mar 23
Last Quarter
Mar 30
New
Apr 7
First Quarter

Hourly Weather History & Observations

Time (EDT) Temp. Windchill Dew Point Humidity Pressure Visibility Wind Dir Wind Speed Gust Speed Precip Events Conditions
12:53 AM 30.9 °F 23.5 °F 21.9 °F 69% 29.99 in 10.0 mi WNW 8.1 mph - N/A   Mostly Cloudy
1:43 AM 30.9 °F 25.2 °F 23.0 °F 72% 29.98 in 10.0 mi WNW 5.8 mph - N/A   Overcast
1:53 AM 30.9 °F 25.2 °F 23.0 °F 72% 30.00 in 10.0 mi NW 5.8 mph - N/A   Overcast
2:07 AM 30.0 °F 25.2 °F 24.1 °F 79% 29.98 in 10.0 mi NW 4.6 mph 20.7 mph N/A   Overcast
2:53 AM 30.0 °F 20.5 °F 21.0 °F 69% 30.00 in 10.0 mi NNW 11.5 mph 17.3 mph N/A   Overcast
3:53 AM 28.9 °F 21.1 °F 18.0 °F 64% 30.01 in 10.0 mi NW 8.1 mph - N/A   Overcast
4:53 AM 27.0 °F 21.6 °F 17.1 °F 66% 30.03 in 10.0 mi NW 4.6 mph - N/A   Mostly Cloudy
5:53 AM 26.1 °F 19.4 °F 16.0 °F 66% 30.06 in 10.0 mi NW 5.8 mph - N/A   Clear
6:53 AM 25.0 °F 15.5 °F 15.1 °F 66% 30.10 in 10.0 mi NW 9.2 mph 16.1 mph N/A   Clear
7:53 AM 23.0 °F 15.8 °F 12.9 °F 65% 30.14 in 10.0 mi NW 5.8 mph - N/A   Clear
8:53 AM 24.1 °F 13.7 °F 12.0 °F 60% 30.17 in 10.0 mi NW 10.4 mph - N/A   Clear
9:53 AM 26.1 °F 16.8 °F 14.0 °F 60% 30.22 in 10.0 mi WNW 9.2 mph - N/A   Clear
10:53 AM 28.0 °F 20.0 °F 12.0 °F 51% 30.24 in 10.0 mi WNW 8.1 mph - N/A   Clear
11:53 AM 30.9 °F 25.2 °F 10.0 °F 42% 30.25 in 10.0 mi WNW 5.8 mph - N/A   Clear
12:53 PM 33.1 °F 26.9 °F 8.1 °F 35% 30.24 in 10.0 mi NNW 6.9 mph - N/A   Clear
1:53 PM 35.1 °F 31.0 °F 7.0 °F 31% 30.23 in 10.0 mi NNW 4.6 mph - N/A   Clear
2:53 PM 37.0 °F 31.6 °F 5.0 °F 26% 30.21 in 10.0 mi WSW 6.9 mph - N/A   Clear
3:53 PM 39.0 °F 33.4 °F 5.0 °F 24% 30.21 in 10.0 mi West 8.1 mph - N/A   Clear
4:53 PM 39.9 °F 35.1 °F 3.0 °F 21% 30.20 in 10.0 mi West 6.9 mph - N/A   Clear
5:53 PM 41.0 °F 36.4 °F 3.9 °F 21% 30.20 in 10.0 mi NW 6.9 mph - N/A   Clear
6:53 PM 41.0 °F 37.1 °F 7.0 °F 25% 30.21 in 10.0 mi Variable 5.8 mph - N/A   Clear
7:53 PM 39.0 °F 35.7 °F 8.1 °F 28% 30.23 in 10.0 mi SW 4.6 mph - N/A   Clear
8:53 PM 36.0 °F 32.1 °F 10.9 °F 36% 30.22 in 10.0 mi South 4.6 mph - N/A   Clear
9:53 PM 34.0 °F - 12.0 °F 40% 30.22 in 10.0 mi Calm Calm - N/A   Clear
10:53 PM 32.0 °F - 14.0 °F 48% 30.22 in 10.0 mi Calm Calm - N/A   Clear
11:53 PM 32.0 °F - 12.9 °F 45% 30.21 in 10.0 mi Calm Calm - N/A   Clear